Belize, Belize

12:00 PM CST on September 22, 2017 (GMT -0600)
Philip S W Goldson International

Weather History for MZBZ - December, 2014

Change the Weather History Date:

Tuesday, December 16, 2014

  Actual Average Record
Temperature  
Mean Temperature 72 °F -  
Max Temperature 81 °F - 87 °F (2015)
Min Temperature 64 °F 68 °F 60 °F (1997)
Cooling Degree Days 8    
Growing Degree Days 22 (Base 50)    
Moisture  
Dew Point 67 °F    
Average Humidity 78    
Maximum Humidity 100    
Minimum Humidity 57    
Precipitation  
Precipitation 0.00 in 0.21 in - ()
Sea Level Pressure  
Sea Level Pressure 30.09 in    
Wind  
Wind Speed 3 mph ()    
Max Wind Speed 9 mph    
Max Gust Speed -    
Visibility 8.6 miles    
Events      
Averages and records for this station are not official NWS values.
T = Trace of Precipitation, MM = Missing Value Source: Averaged Metar Reports

Daily Weather History Graph

Daily Weather History Graph

Search for Another Location

Airport or City:

Trip Planner

Search our weather history database for the weather conditions in past years. The results will help you decide how hot, cold, wet, or windy it might be!

Date:

Astronomy

Dec. 16, 2014 Rise Set
Actual Time 6:16 AM CST 5:21 PM CST
Civil Twilight 5:52 AM CST 5:45 PM CST
Nautical Twilight 5:25 AM CST 6:12 PM CST
Astronomical Twilight 4:58 AM CST 6:39 PM CST
Moon 1:11 AM CST (12/16) 1:15 PM CST (12/16)
Length of Visible Light 11h 52m
Length of Day
11h 05m
Waning Crescent, 29% of the Moon is Illuminated
Dec 16
Waning Crescent
Dec 21
New
Dec 28
First Quarter
Jan 4
Full
Jan 13
Last Quarter

Hourly Weather History & Observations

Time (CST) Temp. Heat Index Dew Point Humidity Pressure Visibility Wind Dir Wind Speed Gust Speed Precip Events Conditions
12:00 AM 67 °F - 65 °F 92% 30.05 in 12 mi Calm Calm - -   Scattered Clouds
3:00 AM 65 °F - 64 °F 95% 30.03 in 12 mi Calm Calm - -   Partly Cloudy
5:00 AM 66.2 °F - 64.4 °F 94% 30.05 in 6.2 mi Calm Calm - N/A   Partly Cloudy
6:00 AM 64 °F - 63 °F 95% 30.07 in 12 mi Calm Calm - -   Scattered Clouds
6:00 AM 64.4 °F - 62.6 °F 94% 30.07 in 6.2 mi Calm Calm - N/A   Partly Cloudy
7:00 AM 64.4 °F - 64.4 °F 100% 30.08 in 6.2 mi Calm Calm - N/A   Partly Cloudy
8:00 AM 68.0 °F - 66.2 °F 94% 30.12 in 6.2 mi Calm Calm - N/A   Partly Cloudy
9:00 AM 73 °F - 68 °F 78% 30.14 in 14 mi NNW 3.5 mph - -   Scattered Clouds
9:00 AM 73.4 °F - 68.0 °F 83% 30.13 in 6.2 mi NNW 3.5 mph - N/A   Partly Cloudy
10:00 AM 78.8 °F - 68.0 °F 69% 30.14 in 6.2 mi NNE 3.5 mph - N/A   Partly Cloudy
11:00 AM 80.6 °F 83.2 °F 68.0 °F 65% 30.13 in 6.2 mi NE 6.9 mph - N/A   Scattered Clouds
12:00 PM 81 °F - 68 °F 57% 30.12 in 14 mi ENE 8.1 mph - -   Partly Cloudy
12:00 PM 80.6 °F 83.2 °F 68.0 °F 65% 30.11 in 6.2 mi ENE 8.1 mph - N/A   Scattered Clouds
1:00 PM 80.6 °F 83.9 °F 69.8 °F 70% 30.08 in 6.2 mi NE 8.1 mph - N/A   Scattered Clouds
2:00 PM 80.6 °F 83.2 °F 68.0 °F 65% 30.07 in 6.2 mi ENE 9.2 mph - N/A   Scattered Clouds
3:00 PM 80 °F - 69 °F 62% 30.07 in 14 mi ENE 9.2 mph - -   Partly Cloudy
3:00 PM 80.6 °F 83.9 °F 69.8 °F 70% 30.06 in 6.2 mi ENE 9.2 mph - N/A   Partly Cloudy
4:00 PM 80.6 °F 83.9 °F 69.8 °F 70% 30.07 in 6.2 mi NE 9.2 mph - N/A   Scattered Clouds
5:00 PM 78.8 °F - 69.8 °F 74% 30.08 in 6.2 mi East 4.6 mph - N/A   Scattered Clouds
6:00 PM 77 °F - 70 °F 72% 30.11 in 14 mi East 3.5 mph - -   Partly Cloudy
6:00 PM 77.0 °F - 69.8 °F 78% 30.10 in 6.2 mi East 3.5 mph - N/A   Scattered Clouds
7:00 PM 77.0 °F - 68.0 °F 74% 30.12 in 6.2 mi ENE 6.9 mph - N/A   Scattered Clouds
9:00 PM 76 °F - 69 °F 75% 30.16 in 12 mi East 3.5 mph - -   Scattered Clouds